TimeCST,TemperatureF,Dew PointF,Humidity,Sea Level PressureIn,VisibilityMPH,Wind Direction,Wind SpeedMPH,Gust SpeedMPH,PrecipitationIn,Events,Conditions,WindDirDegrees,DateUTC
12:51 AM,55.0,28.0,35,30.12,10.0,ESE,16.1,-,N/A,,Overcast,120,2013-02-20 06:51:00
1:51 AM,52.0,35.1,53,30.07,10.0,ESE,9.2,-,0.00,Rain,Light Rain,110,2013-02-20 07:51:00
2:51 AM,52.0,35.1,53,30.10,10.0,East,4.6,-,0.00,Rain,Light Rain,90,2013-02-20 08:51:00
3:51 AM,52.0,36.0,54,30.11,10.0,ENE,4.6,-,0.00,,Overcast,60,2013-02-20 09:51:00
4:51 AM,50.0,37.9,63,30.05,10.0,NE,6.9,-,0.01,,Overcast,50,2013-02-20 10:51:00
5:51 AM,48.9,41.0,74,30.09,10.0,NE,3.5,-,N/A,,Overcast,50,2013-02-20 11:51:00
6:51 AM,50.0,37.0,61,30.06,10.0,East,6.9,-,N/A,,Overcast,100,2013-02-20 12:51:00
7:51 AM,51.1,32.0,48,30.05,10.0,ESE,12.7,21.9,N/A,,Overcast,120,2013-02-20 13:51:00
8:51 AM,50.0,30.9,48,30.05,10.0,ESE,17.3,25.3,N/A,,Overcast,120,2013-02-20 14:51:00
9:51 AM,48.0,36.0,63,30.10,2.5,ENE,10.4,-,0.00,Rain,Light Rain,60,2013-02-20 15:51:00
10:01 AM,46.4,37.4,71,30.09,1.8,ENE,11.5,-,0.02,Rain,Light Rain,60,2013-02-20 16:01:00
10:20 AM,44.6,39.2,81,30.08,6.0,NE,10.4,-,0.03,Rain,Light Rain,50,2013-02-20 16:20:00
10:51 AM,45.0,39.9,82,30.05,10.0,ENE,9.2,-,0.03,,Overcast,60,2013-02-20 16:51:00
11:51 AM,48.9,37.9,66,30.02,10.0,East,9.2,-,N/A,,Overcast,90,2013-02-20 17:51:00
12:51 PM,51.1,32.0,48,30.00,10.0,East,9.2,-,N/A,,Overcast,90,2013-02-20 18:51:00
1:51 PM,51.1,34.0,52,29.94,10.0,ESE,18.4,-,0.00,,Overcast,110,2013-02-20 19:51:00
2:51 PM,51.1,33.1,50,29.93,10.0,East,11.5,-,N/A,,Overcast,100,2013-02-20 20:51:00
3:51 PM,51.1,32.0,48,29.90,10.0,East,16.1,20.7,N/A,,Overcast,90,2013-02-20 21:51:00
4:51 PM,51.1,33.1,50,29.88,10.0,East,10.4,-,N/A,,Overcast,90,2013-02-20 22:51:00
5:51 PM,51.1,34.0,52,29.86,10.0,East,11.5,-,N/A,,Overcast,100,2013-02-20 23:51:00
6:51 PM,50.0,36.0,59,29.84,10.0,East,16.1,-,N/A,,Overcast,100,2013-02-21 00:51:00
7:51 PM,50.0,35.1,57,29.85,10.0,East,8.1,-,N/A,,Overcast,80,2013-02-21 01:51:00
8:51 PM,50.0,35.6,58,29.83,10.0,East,12.7,-,N/A,,Overcast,80,2013-02-21 02:51:00
9:51 PM,50.0,37.0,61,29.80,10.0,East,10.4,-,0.00,,Overcast,80,2013-02-21 03:51:00
10:51 PM,50.0,39.9,68,29.75,10.0,East,12.7,21.9,N/A,,Overcast,90,2013-02-21 04:51:00
11:51 PM,50.0,42.1,74,29.72,10.0,East,13.8,-,0.00,,Overcast,100,2013-02-21 05:51:00